Year,Month,Day,Hour,Minute,Value (Times are PST for temperature in C)
2015,11,28,00,00,2.90
2015,11,28,00,01,2.80
2015,11,28,00,02,2.80
2015,11,28,00,03,2.80
2015,11,28,00,04,2.80
2015,11,28,00,05,2.80
2015,11,28,00,06,2.70
2015,11,28,00,07,2.70
2015,11,28,00,08,2.70
2015,11,28,00,09,2.70
2015,11,28,00,10,2.70
2015,11,28,00,11,2.70
2015,11,28,00,12,2.80
2015,11,28,00,13,2.80
2015,11,28,00,14,2.80
2015,11,28,00,15,2.80
2015,11,28,00,16,2.80
2015,11,28,00,17,2.80
2015,11,28,00,18,2.80
2015,11,28,00,19,2.80
2015,11,28,00,20,2.80
2015,11,28,00,21,2.80
2015,11,28,00,22,2.80
2015,11,28,00,23,2.90
2015,11,28,00,24,3.00
2015,11,28,00,25,3.10
2015,11,28,00,26,3.20
2015,11,28,00,27,3.20
2015,11,28,00,28,3.30
2015,11,28,00,29,3.30
2015,11,28,00,30,3.40
2015,11,28,00,31,3.40
2015,11,28,00,32,3.50
2015,11,28,00,33,3.50
2015,11,28,00,34,3.50
2015,11,28,00,35,3.50
2015,11,28,00,36,3.50
2015,11,28,00,37,3.50
2015,11,28,00,38,3.50
2015,11,28,00,39,3.50
2015,11,28,00,40,3.50
2015,11,28,00,41,3.40
2015,11,28,00,42,3.40
2015,11,28,00,43,3.40
2015,11,28,00,44,3.30
2015,11,28,00,45,3.30
2015,11,28,00,46,3.30
2015,11,28,00,47,3.30
2015,11,28,00,48,3.30
2015,11,28,00,49,3.30
2015,11,28,00,50,3.30
2015,11,28,00,51,3.30
2015,11,28,00,52,3.30
2015,11,28,00,53,3.30
2015,11,28,00,54,3.30
2015,11,28,00,55,3.30
2015,11,28,00,56,3.30
2015,11,28,00,57,3.40
2015,11,28,00,58,3.40
2015,11,28,00,59,3.40
2015,11,28,01,00,3.40
2015,11,28,01,01,3.50
2015,11,28,01,02,3.50
2015,11,28,01,03,3.50
2015,11,28,01,04,3.50
2015,11,28,01,05,3.50
2015,11,28,01,06,3.50
2015,11,28,01,07,3.50
2015,11,28,01,08,3.50
2015,11,28,01,09,3.50
2015,11,28,01,10,3.50
2015,11,28,01,11,3.50
2015,11,28,01,12,3.50
2015,11,28,01,13,3.40
2015,11,28,01,14,3.40
2015,11,28,01,15,3.40
2015,11,28,01,16,3.40
2015,11,28,01,17,3.40
2015,11,28,01,18,3.50
2015,11,28,01,19,3.50
2015,11,28,01,20,3.50
2015,11,28,01,21,3.50
2015,11,28,01,22,3.50
2015,11,28,01,23,3.50
2015,11,28,01,24,3.50
2015,11,28,01,25,3.60
2015,11,28,01,26,3.60
2015,11,28,01,27,3.70
2015,11,28,01,28,3.70
2015,11,28,01,29,3.70
2015,11,28,01,30,3.70
2015,11,28,01,31,3.70
2015,11,28,01,32,3.70
2015,11,28,01,33,3.70
2015,11,28,01,34,3.70
2015,11,28,01,35,3.70
2015,11,28,01,36,3.70
2015,11,28,01,37,3.70
2015,11,28,01,38,3.70
2015,11,28,01,39,3.70
2015,11,28,01,40,3.70
2015,11,28,01,41,3.70
2015,11,28,01,42,3.80
2015,11,28,01,43,3.80
2015,11,28,01,44,3.90
2015,11,28,01,45,3.90
2015,11,28,01,46,3.90
2015,11,28,01,47,3.90
2015,11,28,01,48,3.90
2015,11,28,01,49,3.90
2015,11,28,01,50,3.90
2015,11,28,01,51,3.90
2015,11,28,01,52,3.90
2015,11,28,01,53,3.80
2015,11,28,01,54,3.80
2015,11,28,01,55,3.80
2015,11,28,01,56,3.80
2015,11,28,01,57,3.80
2015,11,28,01,58,3.80
2015,11,28,01,59,3.80
2015,11,28,02,00,3.70
2015,11,28,02,01,3.70
2015,11,28,02,02,3.70
2015,11,28,02,03,3.60
2015,11,28,02,04,3.60
2015,11,28,02,05,3.50
2015,11,28,02,06,3.50
2015,11,28,02,07,3.40
2015,11,28,02,08,3.40
2015,11,28,02,09,3.30
2015,11,28,02,10,3.30
2015,11,28,02,11,3.30
2015,11,28,02,12,3.30
2015,11,28,02,13,3.30
2015,11,28,02,14,3.30
2015,11,28,02,15,3.30
2015,11,28,02,16,3.30
2015,11,28,02,17,3.30
2015,11,28,02,18,3.30
2015,11,28,02,19,3.30
2015,11,28,02,20,3.30
2015,11,28,02,21,3.30
2015,11,28,02,22,3.30
2015,11,28,02,23,3.20
2015,11,28,02,24,3.20
2015,11,28,02,25,3.20
2015,11,28,02,26,3.30
2015,11,28,02,27,3.30
2015,11,28,02,28,3.30
2015,11,28,02,29,3.30
2015,11,28,02,30,3.30
2015,11,28,02,31,3.30
2015,11,28,02,32,3.20
2015,11,28,02,33,3.20
2015,11,28,02,34,3.20
2015,11,28,02,35,3.20
2015,11,28,02,36,3.20
2015,11,28,02,37,3.20
2015,11,28,02,38,3.20
2015,11,28,02,39,3.20
2015,11,28,02,40,3.20
2015,11,28,02,41,3.20
2015,11,28,02,42,3.20
2015,11,28,02,43,3.20
2015,11,28,02,44,3.20
2015,11,28,02,45,3.20
2015,11,28,02,46,3.10
2015,11,28,02,47,3.20
2015,11,28,02,48,3.10
2015,11,28,02,49,3.10
2015,11,28,02,50,3.10
2015,11,28,02,51,3.00
2015,11,28,02,52,2.90
2015,11,28,02,53,2.80
2015,11,28,02,54,2.70
2015,11,28,02,55,2.70
2015,11,28,02,56,2.60
2015,11,28,02,57,2.50
2015,11,28,02,58,2.50
2015,11,28,02,59,2.40
2015,11,28,03,00,2.30
2015,11,28,03,01,2.30
2015,11,28,03,02,2.20
2015,11,28,03,03,2.20
2015,11,28,03,04,2.10
2015,11,28,03,05,2.00
2015,11,28,03,06,2.00
2015,11,28,03,07,1.90
2015,11,28,03,08,1.80
2015,11,28,03,09,1.80
2015,11,28,03,10,1.70
2015,11,28,03,11,1.60
2015,11,28,03,12,1.60
2015,11,28,03,13,1.60
2015,11,28,03,14,1.50
2015,11,28,03,15,1.50
2015,11,28,03,16,1.40
2015,11,28,03,17,1.40
2015,11,28,03,18,1.40
2015,11,28,03,19,1.40
2015,11,28,03,20,1.40
2015,11,28,03,21,1.40
2015,11,28,03,22,1.30
2015,11,28,03,23,1.30
2015,11,28,03,24,1.30
2015,11,28,03,25,1.30
2015,11,28,03,26,1.30
2015,11,28,03,27,1.30
2015,11,28,03,28,1.30
2015,11,28,03,29,1.30
2015,11,28,03,30,1.30
2015,11,28,03,31,1.30
2015,11,28,03,32,1.30
2015,11,28,03,33,1.20
2015,11,28,03,34,1.20
2015,11,28,03,35,1.20
2015,11,28,03,36,1.20
2015,11,28,03,37,1.20
2015,11,28,03,38,1.20
2015,11,28,03,39,1.20
2015,11,28,03,40,1.10
2015,11,28,03,41,1.10
2015,11,28,03,42,1.10
2015,11,28,03,43,1.10
2015,11,28,03,44,1.10
2015,11,28,03,45,1.10
2015,11,28,03,46,1.10
2015,11,28,03,47,1.10
2015,11,28,03,48,1.10
2015,11,28,03,49,1.10
2015,11,28,03,50,1.10
2015,11,28,03,51,1.10
2015,11,28,03,52,1.00
2015,11,28,03,53,1.00
2015,11,28,03,54,1.00
2015,11,28,03,55,1.00
2015,11,28,03,56,1.00
2015,11,28,03,57,1.00
2015,11,28,03,58,1.00
2015,11,28,03,59,1.00
2015,11,28,04,00,1.00
2015,11,28,04,01,1.00
2015,11,28,04,02,1.00
2015,11,28,04,03,1.00
2015,11,28,04,04,1.00
2015,11,28,04,05,1.00
2015,11,28,04,06,0.90
2015,11,28,04,07,0.90
2015,11,28,04,08,0.90
2015,11,28,04,09,0.90
2015,11,28,04,10,0.90
2015,11,28,04,11,0.90
2015,11,28,04,12,0.90
2015,11,28,04,13,0.90
2015,11,28,04,14,0.90
2015,11,28,04,15,0.90
2015,11,28,04,16,0.90
2015,11,28,04,17,0.80
2015,11,28,04,18,0.80
2015,11,28,04,19,0.80
2015,11,28,04,20,0.80
2015,11,28,04,21,0.80
2015,11,28,04,22,0.70
2015,11,28,04,23,0.70
2015,11,28,04,24,0.60
2015,11,28,04,25,0.60
2015,11,28,04,26,0.50
2015,11,28,04,27,0.50
2015,11,28,04,28,0.50
2015,11,28,04,29,0.50
2015,11,28,04,30,0.50
2015,11,28,04,31,0.50
2015,11,28,04,32,0.50
2015,11,28,04,33,0.40
2015,11,28,04,34,0.40
2015,11,28,04,35,0.40
2015,11,28,04,36,0.40
2015,11,28,04,37,0.40
2015,11,28,04,38,0.30
2015,11,28,04,39,0.30
2015,11,28,04,40,0.30
2015,11,28,04,41,0.30
2015,11,28,04,42,0.30
2015,11,28,04,43,0.40
2015,11,28,04,44,0.30
2015,11,28,04,45,0.30
2015,11,28,04,46,0.30
2015,11,28,04,47,0.30
2015,11,28,04,48,0.30
2015,11,28,04,49,0.30
2015,11,28,04,50,0.40
2015,11,28,04,51,0.40
2015,11,28,04,52,0.40
2015,11,28,04,53,0.40
2015,11,28,04,54,0.40
2015,11,28,04,55,0.50
2015,11,28,04,56,0.50
2015,11,28,04,57,0.50
2015,11,28,04,58,0.50
2015,11,28,04,59,0.40
2015,11,28,05,00,0.40
2015,11,28,05,01,0.40
2015,11,28,05,02,0.40
2015,11,28,05,03,0.40
2015,11,28,05,04,0.30
2015,11,28,05,05,0.30
2015,11,28,05,06,0.30
2015,11,28,05,07,0.30
2015,11,28,05,08,0.30
2015,11,28,05,09,0.30
2015,11,28,05,10,0.40
2015,11,28,05,11,0.40
2015,11,28,05,12,0.40
2015,11,28,05,13,0.40
2015,11,28,05,14,0.40
2015,11,28,05,15,0.40
2015,11,28,05,16,0.40
2015,11,28,05,17,0.40
2015,11,28,05,18,0.30
2015,11,28,05,19,0.30
2015,11,28,05,20,0.30
2015,11,28,05,21,0.30
2015,11,28,05,22,0.30
2015,11,28,05,23,0.30
2015,11,28,05,24,0.30
2015,11,28,05,25,0.30
2015,11,28,05,26,0.30
2015,11,28,05,27,0.20
2015,11,28,05,28,0.20
2015,11,28,05,29,0.20
2015,11,28,05,30,0.20
2015,11,28,05,31,0.20
2015,11,28,05,32,0.20
2015,11,28,05,33,0.30
2015,11,28,05,34,0.30
2015,11,28,05,35,0.40
2015,11,28,05,36,0.40
2015,11,28,05,37,0.40
2015,11,28,05,38,0.40
2015,11,28,05,39,0.40
2015,11,28,05,40,0.40
2015,11,28,05,41,0.40
2015,11,28,05,42,0.40
2015,11,28,05,43,0.40
2015,11,28,05,44,0.40
2015,11,28,05,45,0.40
2015,11,28,05,46,0.40
2015,11,28,05,47,0.40
2015,11,28,05,48,0.40
2015,11,28,05,49,0.40
2015,11,28,05,50,0.30
2015,11,28,05,51,0.30
2015,11,28,05,52,0.30
2015,11,28,05,53,0.30
2015,11,28,05,54,0.20
2015,11,28,05,55,0.20
2015,11,28,05,56,0.20
2015,11,28,05,57,0.20
2015,11,28,05,58,0.10
2015,11,28,05,59,0.10
2015,11,28,06,00,0.10
2015,11,28,06,01,0.10
2015,11,28,06,02,0.10
2015,11,28,06,03,0.00
2015,11,28,06,04,0.00
2015,11,28,06,05,0.00
2015,11,28,06,06,0.00
2015,11,28,06,07,-0.10
2015,11,28,06,08,-0.10
2015,11,28,06,09,-0.10
2015,11,28,06,10,-0.10
2015,11,28,06,11,-0.10
2015,11,28,06,12,-0.10
2015,11,28,06,13,-0.10
2015,11,28,06,14,-0.10
2015,11,28,06,15,-0.10
2015,11,28,06,16,-0.10
2015,11,28,06,17,-0.10
2015,11,28,06,18,0.00
2015,11,28,06,19,0.00
2015,11,28,06,20,0.00
2015,11,28,06,21,0.00
2015,11,28,06,22,0.00
2015,11,28,06,23,0.00
2015,11,28,06,24,0.00
2015,11,28,06,25,0.00
2015,11,28,06,26,0.00
2015,11,28,06,27,0.10
2015,11,28,06,28,0.10
2015,11,28,06,29,0.00
2015,11,28,06,30,0.00
2015,11,28,06,31,-0.10
2015,11,28,06,32,-0.10
2015,11,28,06,33,-0.10
2015,11,28,06,34,-0.10
2015,11,28,06,35,-0.10
2015,11,28,06,36,-0.10
2015,11,28,06,37,-0.10
2015,11,28,06,38,-0.10
2015,11,28,06,39,-0.10
2015,11,28,06,40,-0.20
2015,11,28,06,41,-0.20
2015,11,28,06,42,-0.20
2015,11,28,06,43,-0.20
2015,11,28,06,44,-0.20
2015,11,28,06,45,-0.20
2015,11,28,06,46,-0.20
2015,11,28,06,47,-0.20
2015,11,28,06,48,-0.30
2015,11,28,06,49,-0.30
2015,11,28,06,50,-0.30
2015,11,28,06,51,-0.30
2015,11,28,06,52,-0.30
2015,11,28,06,53,-0.30
2015,11,28,06,54,-0.30
2015,11,28,06,55,-0.30
2015,11,28,06,56,-0.30
2015,11,28,06,57,-0.30
2015,11,28,06,58,-0.30
2015,11,28,06,59,-0.30
2015,11,28,07,00,-0.30
2015,11,28,07,01,-0.30
2015,11,28,07,02,-0.30
2015,11,28,07,03,-0.20
2015,11,28,07,04,-0.20
2015,11,28,07,05,-0.20
2015,11,28,07,06,-0.10
2015,11,28,07,07,0.00
2015,11,28,07,08,0.00
2015,11,28,07,09,0.10
2015,11,28,07,10,0.30
2015,11,28,07,11,0.40
2015,11,28,07,12,0.60
2015,11,28,07,13,0.70
2015,11,28,07,14,0.90
2015,11,28,07,15,1.00
2015,11,28,07,16,1.10
2015,11,28,07,17,1.20
2015,11,28,07,18,1.30
2015,11,28,07,19,1.40
2015,11,28,07,20,1.50
2015,11,28,07,21,1.60
2015,11,28,07,22,1.70
2015,11,28,07,23,1.80
2015,11,28,07,24,1.90
2015,11,28,07,25,2.00
2015,11,28,07,26,2.10
2015,11,28,07,27,2.20
2015,11,28,07,28,2.30
2015,11,28,07,29,2.30
2015,11,28,07,30,2.30
2015,11,28,07,31,2.40
2015,11,28,07,32,2.40
2015,11,28,07,33,2.30
2015,11,28,07,34,2.30
2015,11,28,07,35,2.30
2015,11,28,07,36,2.30
2015,11,28,07,37,2.30
2015,11,28,07,38,2.30
2015,11,28,07,39,2.30
2015,11,28,07,40,2.30
2015,11,28,07,41,2.30
2015,11,28,07,42,2.30
2015,11,28,07,43,2.40
2015,11,28,07,44,2.40
2015,11,28,07,45,2.40
2015,11,28,07,46,2.50
2015,11,28,07,47,2.50
2015,11,28,07,48,2.60
2015,11,28,07,49,2.60
2015,11,28,07,50,2.70
2015,11,28,07,51,2.70
2015,11,28,07,52,2.70
2015,11,28,07,53,2.70
2015,11,28,07,54,2.70
2015,11,28,07,55,2.70
2015,11,28,07,56,2.70
2015,11,28,07,57,2.80
2015,11,28,07,58,2.80
2015,11,28,07,59,2.80
2015,11,28,08,00,2.80
2015,11,28,08,01,2.90
2015,11,28,08,02,2.90
2015,11,28,08,03,2.90
2015,11,28,08,04,2.90
2015,11,28,08,05,3.00
2015,11,28,08,06,3.00
2015,11,28,08,07,3.10
2015,11,28,08,08,3.10
2015,11,28,08,09,3.10
2015,11,28,08,10,3.10
2015,11,28,08,11,3.10
2015,11,28,08,12,3.00
2015,11,28,08,13,3.00
2015,11,28,08,14,3.00
2015,11,28,08,15,3.00
2015,11,28,08,16,3.00
2015,11,28,08,17,3.00
2015,11,28,08,18,3.00
2015,11,28,08,19,3.00
2015,11,28,08,20,3.00
2015,11,28,08,21,2.90
2015,11,28,08,22,2.90
2015,11,28,08,23,2.90
2015,11,28,08,24,2.80
2015,11,28,08,25,2.80
2015,11,28,08,26,2.80
2015,11,28,08,27,2.70
2015,11,28,08,28,2.70
2015,11,28,08,29,2.70
2015,11,28,08,30,2.70
2015,11,28,08,31,2.70
2015,11,28,08,32,2.70
2015,11,28,08,33,2.70
2015,11,28,08,34,2.70
2015,11,28,08,35,2.70
2015,11,28,08,36,2.80
2015,11,28,08,37,2.80
2015,11,28,08,38,2.80
2015,11,28,08,39,2.80
2015,11,28,08,40,2.80
2015,11,28,08,41,2.80
2015,11,28,08,42,2.80
2015,11,28,08,43,2.80
2015,11,28,08,44,2.90
2015,11,28,08,45,2.90
2015,11,28,08,46,2.90
2015,11,28,08,47,2.90
2015,11,28,08,48,2.90
2015,11,28,08,49,3.00
2015,11,28,08,50,3.00
2015,11,28,08,51,3.10
2015,11,28,08,52,3.10
2015,11,28,08,53,3.20
2015,11,28,08,54,3.20
2015,11,28,08,55,3.20
2015,11,28,08,56,3.20
2015,11,28,08,57,3.20
2015,11,28,08,58,3.20
2015,11,28,08,59,3.20
2015,11,28,09,00,3.30
2015,11,28,09,01,3.30
2015,11,28,09,02,3.30
2015,11,28,09,03,3.30
2015,11,28,09,04,3.30
2015,11,28,09,05,3.40
2015,11,28,09,06,3.40
2015,11,28,09,07,3.40
2015,11,28,09,08,3.40
2015,11,28,09,09,3.40
2015,11,28,09,10,3.50
2015,11,28,09,11,3.50
2015,11,28,09,12,3.50
2015,11,28,09,13,3.60
2015,11,28,09,14,3.60
2015,11,28,09,15,3.60
2015,11,28,09,16,3.60
2015,11,28,09,17,3.60
2015,11,28,09,18,3.70
2015,11,28,09,19,3.70
2015,11,28,09,20,3.70
2015,11,28,09,21,3.70
2015,11,28,09,22,3.80
2015,11,28,09,23,3.80
2015,11,28,09,24,3.80
2015,11,28,09,25,3.80
2015,11,28,09,26,3.90
2015,11,28,09,27,3.90
2015,11,28,09,28,4.00
2015,11,28,09,29,4.00
2015,11,28,09,30,4.00
2015,11,28,09,31,4.10
2015,11,28,09,32,4.10
2015,11,28,09,33,4.10
2015,11,28,09,34,4.10
2015,11,28,09,35,4.20
2015,11,28,09,36,4.20
2015,11,28,09,37,4.20
2015,11,28,09,38,4.20
2015,11,28,09,39,4.30
2015,11,28,09,40,4.30
2015,11,28,09,41,4.30
2015,11,28,09,42,4.40
2015,11,28,09,43,4.40
2015,11,28,09,44,4.40
2015,11,28,09,45,4.50
2015,11,28,09,46,4.50
2015,11,28,09,47,4.60
2015,11,28,09,48,4.60
2015,11,28,09,49,4.70
2015,11,28,09,50,4.70
2015,11,28,09,51,4.70
2015,11,28,09,52,4.80
2015,11,28,09,53,4.80
2015,11,28,09,54,4.80
2015,11,28,09,55,4.80
2015,11,28,09,56,4.90
2015,11,28,09,57,4.90
2015,11,28,09,58,5.00
2015,11,28,09,59,5.00
2015,11,28,10,00,5.10
2015,11,28,10,01,5.20
2015,11,28,10,02,5.20
2015,11,28,10,03,5.30
2015,11,28,10,04,5.30
2015,11,28,10,05,5.30
2015,11,28,10,06,5.40
2015,11,28,10,07,5.40
2015,11,28,10,08,5.40
2015,11,28,10,09,5.40
2015,11,28,10,10,5.40
2015,11,28,10,11,5.50
2015,11,28,10,12,5.50
2015,11,28,10,13,5.50
2015,11,28,10,14,5.60
2015,11,28,10,15,5.60
2015,11,28,10,16,5.60
2015,11,28,10,17,5.60
2015,11,28,10,18,5.60
2015,11,28,10,19,5.70
2015,11,28,10,20,5.70
2015,11,28,10,21,5.70
2015,11,28,10,22,5.80
2015,11,28,10,23,5.80
2015,11,28,10,24,5.90
2015,11,28,10,25,5.90
2015,11,28,10,26,5.90
2015,11,28,10,27,6.00
2015,11,28,10,28,6.00
2015,11,28,10,29,6.10
2015,11,28,10,30,6.10
2015,11,28,10,31,6.10
2015,11,28,10,32,6.20
2015,11,28,10,33,6.20
2015,11,28,10,34,6.20
2015,11,28,10,35,6.20
2015,11,28,10,36,6.30
2015,11,28,10,37,6.30
2015,11,28,10,38,6.30
2015,11,28,10,39,6.30
2015,11,28,10,40,6.30
2015,11,28,10,41,6.30
2015,11,28,10,42,6.40
2015,11,28,10,43,6.40
2015,11,28,10,44,6.40
2015,11,28,10,45,6.40
2015,11,28,10,46,6.30
2015,11,28,10,47,6.20
2015,11,28,10,48,6.10
2015,11,28,10,49,6.00
2015,11,28,10,50,6.00
2015,11,28,10,51,5.90
2015,11,28,10,52,5.90
2015,11,28,10,53,5.80
2015,11,28,10,54,5.80
2015,11,28,10,55,5.80
2015,11,28,10,56,5.80
2015,11,28,10,57,5.80
2015,11,28,10,58,5.90
2015,11,28,10,59,5.90
2015,11,28,11,00,5.90
2015,11,28,11,01,6.00
2015,11,28,11,02,6.00
2015,11,28,11,03,6.10
2015,11,28,11,04,6.10
2015,11,28,11,05,6.10
2015,11,28,11,06,6.10
2015,11,28,11,07,6.20
2015,11,28,11,08,6.20
2015,11,28,11,09,6.20
2015,11,28,11,10,6.20
2015,11,28,11,11,6.30
2015,11,28,11,12,6.30
2015,11,28,11,13,6.30
2015,11,28,11,14,6.30
2015,11,28,11,15,6.40
2015,11,28,11,16,6.40
2015,11,28,11,17,6.40
2015,11,28,11,18,6.40
2015,11,28,11,19,6.50
2015,11,28,11,20,6.60
2015,11,28,11,21,6.60
2015,11,28,11,22,6.60
2015,11,28,11,23,6.70
2015,11,28,11,24,6.80
2015,11,28,11,25,6.80
2015,11,28,11,26,6.80
2015,11,28,11,27,6.80
2015,11,28,11,28,6.80
2015,11,28,11,29,6.80
2015,11,28,11,30,6.80
2015,11,28,11,31,6.80
2015,11,28,11,32,6.80
2015,11,28,11,33,6.80
2015,11,28,11,34,6.80
2015,11,28,11,35,6.80
2015,11,28,11,36,6.80
2015,11,28,11,37,6.80
2015,11,28,11,38,6.90
2015,11,28,11,39,6.90
2015,11,28,11,40,6.90
2015,11,28,11,41,6.90
2015,11,28,11,42,6.90
2015,11,28,11,43,7.00
2015,11,28,11,44,7.00
2015,11,28,11,45,7.00
2015,11,28,11,46,7.10
2015,11,28,11,47,7.10
2015,11,28,11,48,7.20
2015,11,28,11,49,7.20
2015,11,28,11,50,7.20
2015,11,28,11,51,7.20
2015,11,28,11,52,7.20
2015,11,28,11,53,7.20
2015,11,28,11,54,7.20
2015,11,28,11,55,7.20
2015,11,28,11,56,7.20
2015,11,28,11,57,7.20
2015,11,28,11,58,7.30
2015,11,28,11,59,7.30
2015,11,28,12,00,7.30
2015,11,28,12,01,7.30
2015,11,28,12,02,7.30
2015,11,28,12,03,7.30
2015,11,28,12,04,7.30
2015,11,28,12,05,7.30
2015,11,28,12,06,7.30
2015,11,28,12,07,7.30
2015,11,28,12,08,7.40
2015,11,28,12,09,7.40
2015,11,28,12,10,7.40
2015,11,28,12,11,7.40
2015,11,28,12,12,7.40
2015,11,28,12,13,7.40
2015,11,28,12,14,7.30
2015,11,28,12,15,7.30
2015,11,28,12,16,7.30
2015,11,28,12,17,7.20
2015,11,28,12,18,7.20
2015,11,28,12,19,7.20
2015,11,28,12,20,7.20
2015,11,28,12,21,7.10
2015,11,28,12,22,7.20
2015,11,28,12,23,7.20
2015,11,28,12,24,7.20
2015,11,28,12,25,7.20
2015,11,28,12,26,7.20
2015,11,28,12,27,7.20
2015,11,28,12,28,7.10
2015,11,28,12,29,7.10
2015,11,28,12,30,7.10
2015,11,28,12,31,7.20
2015,11,28,12,32,7.20
2015,11,28,12,33,7.20
2015,11,28,12,34,7.30
2015,11,28,12,35,7.30
2015,11,28,12,36,7.40
2015,11,28,12,37,7.50
2015,11,28,12,38,7.50
2015,11,28,12,39,7.60
2015,11,28,12,40,7.60
2015,11,28,12,41,7.60
2015,11,28,12,42,7.70
2015,11,28,12,43,7.70
2015,11,28,12,44,7.70
2015,11,28,12,45,7.80
2015,11,28,12,46,7.80
2015,11,28,12,47,7.80
2015,11,28,12,48,7.90
2015,11,28,12,49,7.90
2015,11,28,12,50,7.90
2015,11,28,12,51,7.90
2015,11,28,12,52,7.90
2015,11,28,12,53,7.90
2015,11,28,12,54,8.00
2015,11,28,12,55,8.00
2015,11,28,12,56,8.00
2015,11,28,12,57,8.10
2015,11,28,12,58,8.00
2015,11,28,12,59,8.00
2015,11,28,13,00,8.00
2015,11,28,13,01,8.00
2015,11,28,13,02,8.00
2015,11,28,13,03,8.00
2015,11,28,13,04,8.00
2015,11,28,13,05,8.00
2015,11,28,13,06,8.00
2015,11,28,13,07,8.00
2015,11,28,13,08,8.10
2015,11,28,13,09,8.10
2015,11,28,13,10,8.10
2015,11,28,13,11,8.20
2015,11,28,13,12,8.20
2015,11,28,13,13,8.20
2015,11,28,13,14,8.20
2015,11,28,13,15,8.30
2015,11,28,13,16,8.30
2015,11,28,13,17,8.30
2015,11,28,13,18,8.20
2015,11,28,13,19,8.20
2015,11,28,13,20,8.20
2015,11,28,13,21,8.20
2015,11,28,13,22,8.10
2015,11,28,13,23,8.10
2015,11,28,13,24,8.10
2015,11,28,13,25,8.00
2015,11,28,13,26,7.90
2015,11,28,13,27,7.90
2015,11,28,13,28,7.80
2015,11,28,13,29,7.80
2015,11,28,13,30,7.70
2015,11,28,13,31,7.70
2015,11,28,13,32,7.70
2015,11,28,13,33,7.70
2015,11,28,13,34,7.70
2015,11,28,13,35,7.70
2015,11,28,13,36,7.70
2015,11,28,13,37,7.80
2015,11,28,13,38,7.80
2015,11,28,13,39,7.80
2015,11,28,13,40,7.90
2015,11,28,13,41,7.90
2015,11,28,13,42,8.00
2015,11,28,13,43,8.00
2015,11,28,13,44,8.10
2015,11,28,13,45,8.10
2015,11,28,13,46,8.20
2015,11,28,13,47,8.20
2015,11,28,13,48,8.20
2015,11,28,13,49,8.30
2015,11,28,13,50,8.30
2015,11,28,13,51,8.40
2015,11,28,13,52,8.40
2015,11,28,13,53,8.40
2015,11,28,13,54,8.50
2015,11,28,13,55,8.50
2015,11,28,13,56,8.60
2015,11,28,13,57,8.60
2015,11,28,13,58,8.60
2015,11,28,13,59,8.60
2015,11,28,14,00,8.70
2015,11,28,14,01,8.70
2015,11,28,14,02,8.70
2015,11,28,14,03,8.70
2015,11,28,14,04,8.80
2015,11,28,14,05,8.80
2015,11,28,14,06,8.80
2015,11,28,14,07,8.90
2015,11,28,14,08,8.90
2015,11,28,14,09,8.90
2015,11,28,14,10,9.00
2015,11,28,14,11,9.00
2015,11,28,14,12,9.00
2015,11,28,14,13,9.00
2015,11,28,14,14,9.00
2015,11,28,14,15,9.00
2015,11,28,14,16,9.10
2015,11,28,14,17,9.10
2015,11,28,14,18,9.10
2015,11,28,14,19,9.10
2015,11,28,14,20,9.10
2015,11,28,14,21,9.10
2015,11,28,14,22,9.10
2015,11,28,14,23,9.00
2015,11,28,14,24,9.00
2015,11,28,14,25,9.00
2015,11,28,14,26,9.00
2015,11,28,14,27,9.00
2015,11,28,14,28,9.00
2015,11,28,14,29,9.00
2015,11,28,14,30,9.00
2015,11,28,14,31,9.00
2015,11,28,14,32,9.10
2015,11,28,14,33,9.00
2015,11,28,14,34,9.00
2015,11,28,14,35,9.00
2015,11,28,14,36,9.00
2015,11,28,14,37,9.00
2015,11,28,14,38,9.00
2015,11,28,14,39,9.10
2015,11,28,14,40,9.10
2015,11,28,14,41,9.10
2015,11,28,14,42,9.10
2015,11,28,14,43,9.10
2015,11,28,14,44,9.10
2015,11,28,14,45,9.10
2015,11,28,14,46,9.10
2015,11,28,14,47,9.10
2015,11,28,14,48,9.10
2015,11,28,14,49,9.10
2015,11,28,14,50,9.10
2015,11,28,14,51,9.10
2015,11,28,14,52,9.10
2015,11,28,14,53,9.20
2015,11,28,14,54,9.20
2015,11,28,14,55,9.20
2015,11,28,14,56,9.20
2015,11,28,14,57,9.20
2015,11,28,14,58,9.20
2015,11,28,14,59,9.20
2015,11,28,15,00,9.20
2015,11,28,15,01,9.20
2015,11,28,15,02,9.20
2015,11,28,15,03,9.10
2015,11,28,15,04,9.10
2015,11,28,15,05,9.10
2015,11,28,15,06,9.10
2015,11,28,15,07,9.00
2015,11,28,15,08,9.00
2015,11,28,15,09,9.00
2015,11,28,15,10,8.90
2015,11,28,15,11,8.90
2015,11,28,15,12,8.90
2015,11,28,15,13,8.90
2015,11,28,15,14,8.90
2015,11,28,15,15,8.80
2015,11,28,15,16,8.80
2015,11,28,15,17,8.80
2015,11,28,15,18,8.70
2015,11,28,15,19,8.70
2015,11,28,15,20,8.70
2015,11,28,15,21,8.60
2015,11,28,15,22,8.60
2015,11,28,15,23,8.60
2015,11,28,15,24,8.60
2015,11,28,15,25,8.60
2015,11,28,15,26,8.60
2015,11,28,15,27,8.60
2015,11,28,15,28,8.60
2015,11,28,15,29,8.50
2015,11,28,15,30,8.50
2015,11,28,15,31,8.50
2015,11,28,15,32,8.40
2015,11,28,15,33,8.40
2015,11,28,15,34,8.40
2015,11,28,15,35,8.40
2015,11,28,15,36,8.30
2015,11,28,15,37,8.30
2015,11,28,15,38,8.30
2015,11,28,15,39,8.30
2015,11,28,15,40,8.30
2015,11,28,15,41,8.20
2015,11,28,15,42,8.20
2015,11,28,15,43,8.10
2015,11,28,15,44,8.00
2015,11,28,15,45,8.00
2015,11,28,15,46,7.90
2015,11,28,15,47,7.80
2015,11,28,15,48,7.70
2015,11,28,15,49,7.60
2015,11,28,15,50,7.60
2015,11,28,15,51,7.50
2015,11,28,15,52,7.40
2015,11,28,15,53,7.30
2015,11,28,15,54,7.20
2015,11,28,15,55,7.20
2015,11,28,15,56,7.10
2015,11,28,15,57,7.00
2015,11,28,15,58,7.00
2015,11,28,15,59,6.90
2015,11,28,16,00,6.80
2015,11,28,16,01,6.80
2015,11,28,16,02,6.70
2015,11,28,16,03,6.70
2015,11,28,16,04,6.60
2015,11,28,16,05,6.60
2015,11,28,16,06,6.50
2015,11,28,16,07,6.50
2015,11,28,16,08,6.40
2015,11,28,16,09,6.40
2015,11,28,16,10,6.40
2015,11,28,16,11,6.30
2015,11,28,16,12,6.30
2015,11,28,16,13,6.30
2015,11,28,16,14,6.30
2015,11,28,16,15,6.30
2015,11,28,16,16,6.20
2015,11,28,16,17,6.20
2015,11,28,16,18,6.20
2015,11,28,16,19,6.10
2015,11,28,16,20,6.10
2015,11,28,16,21,6.00
2015,11,28,16,22,6.00
2015,11,28,16,23,6.00
2015,11,28,16,24,5.90
2015,11,28,16,25,5.90
2015,11,28,16,26,5.90
2015,11,28,16,27,5.80
2015,11,28,16,28,5.80
2015,11,28,16,29,5.80
2015,11,28,16,30,5.80
2015,11,28,16,31,5.70
2015,11,28,16,32,5.70
2015,11,28,16,33,5.70
2015,11,28,16,34,5.70
2015,11,28,16,35,5.70
2015,11,28,16,36,5.60
2015,11,28,16,37,5.60
2015,11,28,16,38,5.60
2015,11,28,16,39,5.50
2015,11,28,16,40,5.50
2015,11,28,16,41,5.50
2015,11,28,16,42,5.40
2015,11,28,16,43,5.40
2015,11,28,16,44,5.40
2015,11,28,16,45,5.30
2015,11,28,16,46,5.30
2015,11,28,16,47,5.20
2015,11,28,16,48,5.20
2015,11,28,16,49,5.20
2015,11,28,16,50,5.10
2015,11,28,16,51,5.10
2015,11,28,16,52,5.00
2015,11,28,16,53,5.00
2015,11,28,16,54,4.90
2015,11,28,16,55,4.90
2015,11,28,16,56,4.80
2015,11,28,16,57,4.80
2015,11,28,16,58,4.80
2015,11,28,16,59,4.70
2015,11,28,17,00,4.70
2015,11,28,17,01,4.60
2015,11,28,17,02,4.60
2015,11,28,17,03,4.60
2015,11,28,17,04,4.60
2015,11,28,17,05,4.60
2015,11,28,17,06,4.60
2015,11,28,17,07,4.50
2015,11,28,17,08,4.50
2015,11,28,17,09,4.50
2015,11,28,17,10,4.60
2015,11,28,17,11,4.60
2015,11,28,17,12,4.60
2015,11,28,17,13,4.60
2015,11,28,17,14,4.60
2015,11,28,17,15,4.60
2015,11,28,17,16,4.60
2015,11,28,17,17,4.60
2015,11,28,17,18,4.60
2015,11,28,17,19,4.50
2015,11,28,17,20,4.50
2015,11,28,17,21,4.40
2015,11,28,17,22,4.40
2015,11,28,17,23,4.30
2015,11,28,17,24,4.30
2015,11,28,17,25,4.30
2015,11,28,17,26,4.20
2015,11,28,17,27,4.20
2015,11,28,17,28,4.20
2015,11,28,17,29,4.20
2015,11,28,17,30,4.10
2015,11,28,17,31,4.10
2015,11,28,17,32,4.10
2015,11,28,17,33,4.00
2015,11,28,17,34,4.00
2015,11,28,17,35,4.00
2015,11,28,17,36,3.90
2015,11,28,17,37,3.90
2015,11,28,17,38,3.90
2015,11,28,17,39,3.80
2015,11,28,17,40,3.80
2015,11,28,17,41,3.80
2015,11,28,17,42,3.80
2015,11,28,17,43,3.70
2015,11,28,17,44,3.70
2015,11,28,17,45,3.70
2015,11,28,17,46,3.70
2015,11,28,17,47,3.70
2015,11,28,17,48,3.60
2015,11,28,17,49,3.60
2015,11,28,17,50,3.60
2015,11,28,17,51,3.50
2015,11,28,17,52,3.50
2015,11,28,17,53,3.50
2015,11,28,17,54,3.40
2015,11,28,17,55,3.40
2015,11,28,17,56,3.40
2015,11,28,17,57,3.30
2015,11,28,17,58,3.30
2015,11,28,17,59,3.30
2015,11,28,18,00,3.20
2015,11,28,18,01,3.20
2015,11,28,18,02,3.20
2015,11,28,18,03,3.10
2015,11,28,18,04,3.10